(262589) = 2006 VL96

Discovered at Kitt Peak on 2006-11-10 by Spacewatch.

Orbit

Orbit type: Main Belt

Note: WebGL enabled browser required.

epoch2024-03-31.0
epoch JD2460400.5
perihelion date2023-04-26.22197
perihelion JD2460060.72197
argument of perihelion (°)325.09957
ascending node (°)80.59578
inclination (°)5.02806
eccentricity0.1859941
perihelion distance (AU)2.1055597
Tisserand w.r.t. Jupiter3.4
ΔV w.r.t. Earth (km/sec)9.2
semimajor axis (AU)2.5866640
mean anomaly (°)80.49874
mean daily motion (°/day)0.23691570
aphelion distance (AU)3.068
period (years)4.16
P-vector [x]0.69630132
P-vector [y]0.67685999
P-vector [z]0.23879914
Q-vector [x]-0.71252238
Q-vector [y]0.61177118
Q-vector [z]0.34358095
absolute magnitude17.07
phase slope0.15
uncertainty0
referenceMPEC 2024-D64
observations used370
oppositions15
arc length (days)8714
first opposition used2000
last opposition used2024
residual rms (arc-secs)0.79
perturbers coarse indicatorM-v
perturbers precise indicator003Ek
first observation date used2000-04-10.0
last observation date used2024-02-18.0
computer nameMPCLINUX
JD of orbit computation2456966.934614
perihelion JD uncertainty (days)8.5816E-05
argument of perihelion uncertainty (°)7.1972E-05
ascending node uncertainty (°)6.7211E-05
inclination uncertainty (°)6.4552E-06
eccentricity uncertainty 2.3735E-07
perihelion distance uncertainty (AU)6.6013E-07
Minimum Orbit Intersection Distances (in AU)
for orbit epoch: 2460400.5, reference: E2024-D64
Mercury1.78671
Venus1.38277
Earth1.11781
Mars0.61529
Jupiter2.32076
Saturn6.63672
Uranus15.5643
Neptune27.5589

Observations

387 total observations over interval: 2000 04 10.36957 – 2024 02 18.358081
These data are available for download (format description).

Date (UT) J2000 RA J2000 Dec Magn Location Ref
2000 04 10.36957 14 55 04.37 -11 25 33.1 22.7 R 695 – Kitt Peak MPS 196411
2000 04 10.44682 14 55 00.93 -11 25 18.8   695 – Kitt Peak MPS 196411
2003 01 13.28509 07 13 07.60 +26 31 54.5 19.8   644 – Palomar Mountain/NEAT MPS 196411
2003 01 13.36275 07 13 02.55 +26 32 11.8 20.0   644 – Palomar Mountain/NEAT MPS 196411
2003 01 13.43083 07 12 58.12 +26 32 26.4 19.8   644 – Palomar Mountain/NEAT MPS 196411
2006 11 10.43711 05 47 56.95 +21 50 00.7 20.5 V 691 – Steward Observatory, Kitt Peak-Spacewatch MPS 188949
2006 11 10.45452 05 47 56.55 +21 50 03.3 20.4 V 691 – Steward Observatory, Kitt Peak-Spacewatch MPS 188949
2006 11 10.47193 05 47 56.15 +21 50 05.6 20.2 V 691 – Steward Observatory, Kitt Peak-Spacewatch MPS 188949
2006 11 17.39568 05 44 46.62 +22 06 57.5 20.1 V 691 – Steward Observatory, Kitt Peak-Spacewatch MPS 188949
2006 11 17.41304 05 44 45.96 +22 06 59.6 19.7 V 691 – Steward Observatory, Kitt Peak-Spacewatch MPS 188949
2006 11 17.43041 05 44 45.31 +22 07 02.5 20.1 V 691 – Steward Observatory, Kitt Peak-Spacewatch MPS 188949
2006 11 25.36655 05 39 09.08 +22 27 16.0   691 – Steward Observatory, Kitt Peak-Spacewatch MPS 190704
2006 11 25.38392 05 39 08.18 +22 27 19.8   691 – Steward Observatory, Kitt Peak-Spacewatch MPS 190704
2006 11 25.40611 05 39 07.04 +22 27 23.4   691 – Steward Observatory, Kitt Peak-Spacewatch MPS 190704
2006 12 12.22440 05 22 39.55 +23 08 44.9 19.6 V 691 – Steward Observatory, Kitt Peak-Spacewatch MPS 192450
2006 12 12.24165 05 22 38.41 +23 08 47.4 19.7 V 691 – Steward Observatory, Kitt Peak-Spacewatch MPS 192450
2006 12 12.25896 05 22 37.31 +23 08 50.1 20.7 V 691 – Steward Observatory, Kitt Peak-Spacewatch MPS 192450
2006 12 12.32270 05 22 33.02 +23 08 58.2 18.8 V G96 – Mt. Lemmon Survey MPS 192450
2006 12 12.33244 05 22 32.37 +23 08 59.6 18.7 V G96 – Mt. Lemmon Survey MPS 192450
2006 12 12.34214 05 22 31.72 +23 09 00.8 18.8 V G96 – Mt. Lemmon Survey MPS 192450
2006 12 12.35530 05 22 30.82 +23 09 02.5 18.7 V G96 – Mt. Lemmon Survey MPS 192450
2006 12 18.29174 05 16 15.58 +23 21 50.6 20.0   704 – Lincoln Laboratory ETS, New Mexico MPS 192450
2006 12 18.30473 05 16 14.79 +23 21 53.7 19.9   704 – Lincoln Laboratory ETS, New Mexico MPS 192450
2006 12 18.31778 05 16 13.95 +23 21 55.0 19.9   704 – Lincoln Laboratory ETS, New Mexico MPS 192450
2006 12 22.25324 05 12 15.53 +23 29 45.6 19.6   704 – Lincoln Laboratory ETS, New Mexico MPS 192450
2006 12 22.26586 05 12 14.73 +23 29 47.6 19.9   704 – Lincoln Laboratory ETS, New Mexico MPS 192450
2006 12 22.27846 05 12 13.96 +23 29 48.1 19.8   704 – Lincoln Laboratory ETS, New Mexico MPS 192450
2006 12 22.29118 05 12 13.19 +23 29 50.4 20.0   704 – Lincoln Laboratory ETS, New Mexico MPS 192450
2007 01 09.29282 04 58 29.49 +24 01 31.9 19.8 V G96 – Mt. Lemmon Survey MPS 195573
2007 01 09.29788 04 58 29.35 +24 01 32.5 19.8 V G96 – Mt. Lemmon Survey MPS 195573
2007 01 09.30313 04 58 29.20 +24 01 32.9 19.7 V G96 – Mt. Lemmon Survey MPS 195573
2007 01 09.31024 04 58 28.95 +24 01 33.9 19.9 V G96 – Mt. Lemmon Survey MPS 195573
2008 04 01.32149 13 13 06.56 -00 18 04.9 21.8 V G96 – Mt. Lemmon Survey MPS 244769
2008 04 01.32767 13 13 06.13 -00 18 04.0 20.6 V G96 – Mt. Lemmon Survey MPS 244770
2008 04 01.33383 13 13 05.73 -00 18 02.4 20.8 V G96 – Mt. Lemmon Survey MPS 244770
2008 04 01.33995 13 13 05.44 -00 18 00.4 20.7 V G96 – Mt. Lemmon Survey MPS 244770
2008 04 08.32873 13 06 58.21 +00 15 44.2 20.4 V G96 – Mt. Lemmon Survey MPS 245797
2008 04 08.33538 13 06 57.85 +00 15 46.4 21.3 V G96 – Mt. Lemmon Survey MPS 245797
2008 04 08.34214 13 06 57.52 +00 15 48.0 21.4 V G96 – Mt. Lemmon Survey MPS 245797
2008 04 08.34885 13 06 57.09 +00 15 51.0 19.7 V G96 – Mt. Lemmon Survey MPS 245797
2008 04 29.23240 12 50 16.83 +01 29 43.8 21.5 V G96 – Mt. Lemmon Survey MPS 248184
2008 04 29.23679 12 50 16.62 +01 29 44.7 21.5 V G96 – Mt. Lemmon Survey MPS 248184
2008 04 29.24117 12 50 16.44 +01 29 45.0 21.6 V G96 – Mt. Lemmon Survey MPS 248184
2008 04 29.24553 12 50 16.26 +01 29 45.5 21.8 V G96 – Mt. Lemmon Survey MPS 248184
2010 10 17.44831 03 40 49.62 +13 51 05.7 19.4 V G96 – Mt. Lemmon Survey MPS 351315
2010 10 17.45433 03 40 49.44 +13 51 05.3 19.2 V G96 – Mt. Lemmon Survey MPS 351315
2010 10 17.46043 03 40 49.26 +13 51 05.1 19.4 V G96 – Mt. Lemmon Survey MPS 351315
2010 10 17.46654 03 40 49.11 +13 51 04.9 19.5 V G96 – Mt. Lemmon Survey MPS 351315
2010 10 29.41927 03 33 20.16 +13 41 27.7 19.3 V 703 – Catalina Sky Survey MPS 353836
2010 10 29.42679 03 33 19.80 +13 41 28.0 19.8 V 703 – Catalina Sky Survey MPS 353836
2010 10 29.43429 03 33 19.47 +13 41 27.0 20.0 V 703 – Catalina Sky Survey MPS 353836
2010 10 29.44185 03 33 19.04 +13 41 27.8 19.6 V 703 – Catalina Sky Survey MPS 353836
2010 11 03.41963 03 29 08.48 +13 36 46.3 18.9 V G96 – Mt. Lemmon Survey MPS 353836
2010 11 03.42804 03 29 08.01 +13 36 46.0 18.7 V G96 – Mt. Lemmon Survey MPS 353836
2010 11 03.43639 03 29 07.54 +13 36 45.2 19.1 V G96 – Mt. Lemmon Survey MPS 353836
2010 11 03.44474 03 29 07.08 +13 36 44.7 19.1 V G96 – Mt. Lemmon Survey MPS 353836
2010 11 04.00133 03 28 37.68 +13 36 13.6 18.7 V J75 – OAM Observatory, La Sagra MPS 353836
2010 11 04.01400 03 28 36.96 +13 36 12.7 19.2 V J75 – OAM Observatory, La Sagra MPS 353836
2010 11 04.02668 03 28 36.26 +13 36 11.6 19.3 V J75 – OAM Observatory, La Sagra MPS 353836
2010 11 05.22198 03 27 31.52 +13 35 08.6 19.6   704 – Lincoln Laboratory ETS, New Mexico MPS 355439
2010 11 05.23374 03 27 30.86 +13 35 07.7 19.2   704 – Lincoln Laboratory ETS, New Mexico MPS 355439
2010 11 05.23440 03 27 30.80 +13 35 08.2 19.7   704 – Lincoln Laboratory ETS, New Mexico MPS 355439
2010 11 05.24618 03 27 30.15 +13 35 08.1 19.6   704 – Lincoln Laboratory ETS, New Mexico MPS 355439
2010 11 05.24684 03 27 30.09 +13 35 08.5 19.7   704 – Lincoln Laboratory ETS, New Mexico MPS 355439
2010 11 05.25862 03 27 29.46 +13 35 06.8 19.8   704 – Lincoln Laboratory ETS, New Mexico MPS 355439
2010 11 05.25928 03 27 29.44 +13 35 06.1 20.1   704 – Lincoln Laboratory ETS, New Mexico MPS 355439
2010 11 05.27105 03 27 28.72 +13 35 05.9 19.7   704 – Lincoln Laboratory ETS, New Mexico MPS 355439
2010 11 05.28352 03 27 28.01 +13 35 05.1 19.6   704 – Lincoln Laboratory ETS, New Mexico MPS 355439
2010 11 09.24966 03 23 44.84 +13 31 43.0 19.3 V 703 – Catalina Sky Survey MPS 355439
2010 11 09.25478 03 23 44.48 +13 31 43.3 19.4 V 703 – Catalina Sky Survey MPS 355439
2010 11 09.25999 03 23 44.23 +13 31 43.0 19.4 V 703 – Catalina Sky Survey MPS 355439
2010 11 09.26514 03 23 43.90 +13 31 42.5 19.8 V 703 – Catalina Sky Survey MPS 355439
2010 11 10.32737 03 22 42.37 +13 30 51.9 19.2   704 – Lincoln Laboratory ETS, New Mexico MPS 355439
2010 11 10.34011 03 22 41.63 +13 30 50.4 19.8   704 – Lincoln Laboratory ETS, New Mexico MPS 355439
2010 11 10.35286 03 22 40.94 +13 30 50.8 20.1   704 – Lincoln Laboratory ETS, New Mexico MPS 355439
2010 11 10.37852 03 22 39.27 +13 30 48.9 20.0   704 – Lincoln Laboratory ETS, New Mexico MPS 355439
2010 11 14.23095 03 18 55.18 +13 28 15.3 18.6 V G96 – Mt. Lemmon Survey MPS 357469
2010 11 14.23795 03 18 54.75 +13 28 15.0 18.7 V G96 – Mt. Lemmon Survey MPS 357469
2010 11 14.24497 03 18 54.32 +13 28 14.8 18.7 V G96 – Mt. Lemmon Survey MPS 357469
2010 11 14.25206 03 18 53.89 +13 28 14.7 18.7 V G96 – Mt. Lemmon Survey MPS 357469
2010 11 15.30403 03 17 52.22 +13 27 41.5 19.1 V 703 – Catalina Sky Survey MPS 357469
2010 11 15.30918 03 17 52.04 +13 27 41.1 19.2 V 703 – Catalina Sky Survey MPS 357469
2010 11 15.31434 03 17 51.64 +13 27 42.2 19.3 V 703 – Catalina Sky Survey MPS 357469
2010 11 15.31956 03 17 51.32 +13 27 41.4 19.2 V 703 – Catalina Sky Survey MPS 357469
2010 12 03.22213 03 02 15.53 +13 31 30.8 20.1   704 – Lincoln Laboratory ETS, New Mexico MPS 359027
2010 12 03.23525 03 02 14.88 +13 31 31.9 20.3   704 – Lincoln Laboratory ETS, New Mexico MPS 359027
2010 12 03.24840 03 02 14.26 +13 31 33.8 20.0   704 – Lincoln Laboratory ETS, New Mexico MPS 359027
2010 12 03.26186 03 02 13.67 +13 31 33.5 20.1   704 – Lincoln Laboratory ETS, New Mexico MPS 359027
2010 12 09.07735 02 58 38.85 +13 40 02.4 19.7 V G96 – Mt. Lemmon Survey MPS 359027
2010 12 09.08373 02 58 38.64 +13 40 03.3 19.8 V G96 – Mt. Lemmon Survey MPS 359027
